Flag for United Kingdom Weather past 2 weeks in Milton Keynes, England, United Kingdom

54 °F

Low clouds.

Feels Like: 49 °F
Forecast: 46 / 55 °F
Wind: 16 mph from Southwest

Location: Luton Airport

Current Time: Dec 1, 2015 at 6:24:29 AM

Latest Report: Dec 1, 2015 at 5:50 AM

Visibility: N/A

Pressure: 30.09 "Hg

Humidity: 100%

Dew point: 54 °F

Location of Milton KeynesLocation

Historic Weather in Milton Keynes — Graph


Milton Keynes temperature yesterday

Maximum temperature yesterday: 55 °F (at 6:20 PM)
Minimum temperature yesterday: 41 °F (at 2:50 AM)
Average temperature yesterday: 49 °F

Past Weeks' High & Low Weather Summary

High59 °F (Nov 17, 3:20 PM)100% (Nov 16, 10:20 PM)30.24 "Hg (Nov 16, 10:20 PM)
Low28 °F (Nov 22, 1:20 AM)66% (Nov 20, 2:20 PM)29.47 "Hg (Nov 17, 2:20 PM)
Average46 °F89%29.85 "Hg
* Reported Nov 16 4:20 AM — Dec 1 4:50 AM, Milton Keynes, Weather by CustomWeather, © 2015

Note: Actual official high and low records may vary slightly from our data, if they occured in-between our weather recording intervals... More about our weather records


Milton Keynes weather history for previous 24 hours

Time TempWeatherWind HumidityBarometerVisibility
4:50 AM
Tue, Dec 1
46 °FFog.3 mph100%30.09 "Hg1 mi
4:20 AM46 °FFog.No wind100%30.09 "Hg2 mi
3:50 AM46 °FFog.2 mph100%30.09 "Hg1 mi
3:20 AM46 °FFog.3 mph100%30.09 "Hg1 mi
2:50 AM46 °FFog.3 mph100%30.09 "Hg1 mi
2:20 AM46 °FDrizzle. Fog.2 mph100%30.09 "Hg1 mi
1:50 AM46 °FDrizzle. Fog.No wind100%30.09 "Hg1 mi
1:20 AM46 °FDrizzle. Fog.No wind100%30.09 "Hg2 mi
12:50 AM46 °FDrizzle. Fog.3 mph100%30.09 "Hg2 mi
11:50 PM
Mon, Nov 30
46 °FFog.3 mph100%30.07 "Hg2 mi
11:20 PM46 °FDrizzle. Fog.6 mph100%30.04 "Hg2 mi
10:20 PM46 °FPassing clouds.8 mph100%30.04 "Hg2 mi
9:50 PM46 °FPassing clouds.14 mph100%30.01 "Hg2 mi
9:20 PM50 °FPassing clouds.10 mph100%30.01 "Hg3 mi
8:50 PM55 °FPassing clouds.17 mph88%29.95 "HgN/A
8:20 PM55 °FMostly cloudy.23 mph88%29.95 "HgN/A
7:50 PM54 °FPartly cloudy.24 mph94%29.92 "HgN/A
7:20 PM54 °FScattered showers. Passing clouds.25 mph94%29.92 "HgN/A
6:50 PM55 °FPassing clouds.26 mph88%29.89 "HgN/A
6:20 PM55 °FPassing clouds.30 mph88%29.89 "HgN/A
5:50 PM54 °FPassing clouds.31 mph94%29.86 "HgN/A
5:20 PM54 °FPassing clouds.32 mph94%29.83 "HgN/A
4:50 PM54 °FPassing clouds.33 mph94%29.83 "HgN/A
4:20 PM54 °FScattered showers. Passing clouds.30 mph94%29.83 "Hg4 mi
3:50 PM52 °FScattered showers. Partly sunny.29 mph100%29.83 "HgN/A
3:20 PM52 °FScattered showers. Partly sunny.29 mph94%29.83 "Hg3 mi
2:50 PM52 °FDrizzle. Partly sunny.31 mph94%29.83 "Hg3 mi
2:20 PM52 °FDrizzle. Partly sunny.28 mph94%29.83 "Hg4 mi
1:50 PM52 °FDrizzle. Partly sunny.28 mph94%29.83 "Hg5 mi
1:20 PM54 °FPartly sunny.29 mph82%29.83 "HgN/A
12:50 PM52 °FPartly sunny.29 mph88%29.83 "HgN/A
12:20 PM54 °FPartly sunny.28 mph82%29.86 "HgN/A
11:50 AM52 °FPartly sunny.26 mph88%29.86 "HgN/A
11:20 AM52 °FPartly sunny.25 mph88%29.89 "HgN/A
10:50 AM52 °FPartly sunny.25 mph88%29.89 "HgN/A
10:20 AM50 °FPartly sunny.22 mph94%29.89 "HgN/A
9:50 AM52 °FPartly sunny.22 mph88%29.92 "HgN/A
9:20 AM50 °FPartly sunny.22 mph94%29.92 "HgN/A
8:50 AM50 °FPartly sunny.22 mph94%29.92 "HgN/A
8:20 AM48 °FDrizzle. Partly sunny.15 mph100%29.95 "Hg5 mi
7:20 AM46 °FPassing clouds.10 mph100%29.95 "Hg5 mi
6:50 AM45 °FPassing clouds.9 mph100%29.98 "Hg5 mi
6:20 AM43 °FPassing clouds.6 mph100%29.98 "Hg6 mi
Weather by CustomWeather, © 2015

See weather overviewHow to use our weather pages